Regional Weather Roundup
Issued by NWS New Orleans/Baton Rouge, LA

Home | Current Version | Previous Version | Text Only | Print | Product List | Glossary On
Versions: 1 2 3 4 5 6 7 8 9 10 11 12 13 14 15 16 17 18 19 20 21 22 23 24 25 26 27 28 29 30 31 32 33 34 35 36 37 38 39 40 41 42 43 44 45 46 47 48 49 50
901
ASUS44 KLIX 310305
RWRLIX
NEW ORLEANS REGIONAL WEATHER ROUNDUP
NATIONAL WEATHER SERVICE NEW ORLEANS LA
1000 PM CDT WED JUL 30 2014

NOTE: "FAIR" INDICATES FEW OR NO CLOUDS BELOW 12,000 FEET WITH NO
      SIGNIFICANT WEATHER AND/OR OBSTRUCTIONS TO VISIBILITY.
      SKY/WX - SKY CONDITION AND SIGNIFICANT WEATHER.
      TMP - AIR TEMPERATURE.     DP    - DEWPOINT TEMPERATURE.
      RH  - RELATIVE HUMIDITY.   PRES  - PRESSURE.
      HI  - HEAT INDEX.          WCI   - WIND CHILL INDEX.

*  THESE STATIONS ARE NOT NWS OR FAA STATIONS AND ARE NOT UNDER
   NWS QUALITY CONTROL.

LAZ038-040-048-061>063-065>067-069-310400-
SOUTHEAST LOUISIANA

CITY           SKY/WX    TMP DP  RH WIND       PRES   REMARKS
N.O. AUDUBON   NOT AVBL
N.O. INTL ARPT PTCLDY    80  61  52 NE8       30.02R
N.O. LAKEFRONT CLEAR     83  61  47 NE12      30.03R
N.O. DOWNTOWN*   N/A     82  57  42 NE5       30.03R
SLIDELL        CLEAR     71  66  84 CALM      30.02R
BATON ROUGE    CLEAR     74  65  73 NE3       30.02R
BOOTHVILLE     CLEAR     78  65  63 CALM      30.03R
BELLE CHASSE   PTCLDY    71  65  81 CALM      30.02R
BOGALUSA*        N/A     72  65  80 CALM      30.05R
GALLIANO*      NOT AVBL
NEW ROADS*       N/A     73  67  82 NE3       30.02S
GONZALES*        N/A     72  70  93 CALM      30.02R
HAMMOND*       CLEAR     72  64  78 CALM      30.05R
HOUMA*         CLEAR     76  64  67 CALM      30.02R
PORT FOURCHON* PTCLDY    82  68  61 E3        30.03S

$$

MSZ070-080>082-310400-
SOUTHERN MISSISSIPPI

CITY           SKY/WX    TMP DP  RH WIND       PRES   REMARKS
MCCOMB         CLEAR     75  61  61 NE3       30.04S
GULFPORT       CLEAR     79  59  50 NE5       30.02R
BILOXI         CLEAR     76  61  59 NE8       30.03R
PASCAGOULA     CLEAR     68  64  87 CALM      30.03R

$$

COASTAL OBSERVATIONS
LAKE AND NEARSHORE STATIONS

STATION/POSITION TIME  TEMP    WIND        PRES    WAVE
                       AIR SEA DIR/SP/G            HT/PER
                 (UTC) (F)     (DEG/KT/KT) (MB)    (FT/S)
PASCAGOULA       0300   79      50/  6/  8 1016.2
WAVELAND YACHT   0300   81      60/  8/ 10 1016.0
GRAND ISLE       0300   81 87  100/  4/  8 1017.2
SOUTHWEST PASS   0300   82 85   50/  5/  5 1017.1
NEW CANAL        0300   83 85   50/  9/ 11 1016.9
SHELL BEACH      0300   83 83  360/  9/ 11 1016.3

OFFSHORE STATIONS

STATION/POSITION TIME  TEMP    WIND        PRES    WAVE
                       AIR SEA DIR/SP/G            HT/PER
                 (UTC) (F)     (DEG/KT/KT) (MB)    (FT/S)
64 S DAUPHIN ISL 0216   81 86  360/  6/  8 1016.9

$$




USA.gov is the U.S. government's official web portal to all federal, state and local government web resources and services.